Location: Rounton
(54.4000°N, 1.3500°W)
Time: 08:43:19
(UTC+01:00)

A-11 Canister half - Pass Details

Date: 02 July 2022
Orbit: 1525 x 1683 km, 47.3° (Epoch: 16 August)

Event Time Altitude Azimuth Distance (km) Brightness Sun altitude
Rises 00:29:06 0° 284° (WNW) 4,698 11.9 -12.1°
Reaches altitude 10° 00:33:03 10° 270° (W) 3,702 11.1 -12.2°
Maximum altitude 00:39:29 21° 225° (SW) 2,887 10.1 -12.3°
Enters shadow 00:44:24 14° 188° (S) 3,381 10.2 -12.4°
